Weather History for Milwaukee Timmerman, WI

Change the Weather History Date:

Friday, February 15, 2013

  Actual Average Record
Temperature  
Mean Temperature 21 °F -  
Max Temperature 28 °F 33 °F 61 °F (1954)
Min Temperature 14 °F 19 °F -10 °F (1963)
Degree Days  
Heating Degree Days 44    
Moisture  
Dew Point 11 °F    
Average Humidity 67    
Maximum Humidity 93    
Minimum Humidity 50    
Precipitation  
Precipitation 0.00 in - - ()
Sea Level Pressure  
Sea Level Pressure 30.11 in    
Wind  
Wind Speed 10 mph (NW)    
Max Wind Speed 15 mph    
Max Gust Speed 22 mph    
Visibility 9 miles    
Events Snow    
Averages and records for this station are not official NWS values.
T = Trace of Precipitation, MM = Missing Value Source: NWS Daily Summary

Daily Weather History Graph

Daily Weather History Graph

Search for Another Location

Airport:

Trip Planner

Search our weather history database for the weather conditions in past years. The results will help you decide how hot, cold, wet, or windy it might be!

Date:

Astronomy

Feb. 15, 2013 Rise Set
Actual Time 6:49 AM CST 5:23 PM CST
Civil Twilight 6:20 AM CST 5:52 PM CST
Nautical Twilight 5:47 AM CST 6:26 PM CST
Astronomical Twilight 5:14 AM CST 6:59 PM CST
Moon 9:15 AM CST (2/15) 11:35 PM CST (2/15)
Length of Visible Light 11h 32m
Length of Day
10h 34m
Waxing Crescent, 30% of the Moon is Illuminated
Feb 15
Waxing Crescent
Feb 17
First Quarter
Feb 25
Full
Mar 4
Last Quarter
Mar 11
New

Hourly Weather History & Observations

Time (CST) Temp. Windchill Dew Point Humidity Pressure Visibility Wind Dir Wind Speed Gust Speed Precip Events Conditions
12:15 AM 28.4 °F 22.2 °F 26.6 °F 93% 29.97 in 4.0 mi NNW 5.8 mph - N/A Snow Light Snow
12:35 AM 28.4 °F 18.5 °F 23.0 °F 80% 29.98 in 5.0 mi North 11.5 mph - N/A Snow Light Snow
12:55 AM 26.6 °F 15.7 °F 21.2 °F 80% 29.99 in 5.0 mi North 12.7 mph - N/A Snow Light Snow
1:15 AM 26.6 °F 16.2 °F 21.2 °F 80% 30.00 in 5.0 mi North 11.5 mph 16.1 mph N/A Snow Light Snow
1:35 AM 26.6 °F 17.5 °F 21.2 °F 80% 30.01 in 2.5 mi NNW 9.2 mph - N/A Snow Light Snow
1:55 AM 24.8 °F 12.9 °F 21.2 °F 86% 30.01 in 5.0 mi NNW 13.8 mph - N/A Snow Light Snow
2:15 AM 23.0 °F 11.7 °F 19.4 °F 86% 30.03 in 7.0 mi North 11.5 mph - N/A Snow Light Snow
2:35 AM 23.0 °F 12.4 °F 17.6 °F 80% 30.03 in 10.0 mi NNW 10.4 mph - N/A   Overcast
2:55 AM 23.0 °F 12.4 °F 17.6 °F 80% 30.03 in 10.0 mi NNW 10.4 mph - N/A   Overcast
3:15 AM 23.0 °F 13.1 °F 17.6 °F 80% 30.03 in 10.0 mi NNW 9.2 mph - N/A   Overcast
3:35 AM 23.0 °F 10.1 °F 15.8 °F 74% 30.04 in 10.0 mi NNW 15.0 mph 21.9 mph N/A   Overcast
3:55 AM 21.2 °F 10.1 °F 12.2 °F 68% 30.05 in 10.0 mi NNW 10.4 mph - N/A   Overcast
4:15 AM 21.2 °F 10.9 °F 10.4 °F 63% 30.06 in 10.0 mi NNW 9.2 mph 17.3 mph N/A   Mostly Cloudy
4:35 AM 19.4 °F 9.5 °F 10.4 °F 68% 30.07 in 10.0 mi NNW 8.1 mph - N/A   Scattered Clouds
4:55 AM 19.4 °F 9.5 °F 10.4 °F 68% 30.08 in 10.0 mi NW 8.1 mph - N/A   Clear
5:15 AM 17.6 °F 8.2 °F 10.4 °F 73% 30.09 in 10.0 mi WNW 6.9 mph - N/A   Clear
5:35 AM 17.6 °F 6.4 °F 10.4 °F 73% 30.09 in 10.0 mi NW 9.2 mph - N/A   Clear
5:55 AM 17.6 °F 6.4 °F 10.4 °F 73% 30.10 in 10.0 mi NW 9.2 mph - N/A   Clear
6:45 AM 15.8 °F 4.2 °F 8.6 °F 73% 30.11 in 10.0 mi WNW 9.2 mph - N/A   Clear
7:45 AM 15.8 °F 4.2 °F 8.6 °F 73% 30.14 in 10.0 mi WNW 9.2 mph - N/A   Clear
8:45 AM 19.4 °F 8.6 °F 8.6 °F 63% 30.15 in 10.0 mi NW 9.2 mph - N/A   Clear
9:45 AM 21.2 °F 10.9 °F 10.4 °F 63% 30.17 in 10.0 mi NNW 9.2 mph - N/A   Clear
10:45 AM 23.0 °F 12.4 °F 10.4 °F 59% 30.17 in 10.0 mi NW 10.4 mph - N/A   Clear
12:45 PM 24.8 °F 14.0 °F 10.4 °F 54% 30.14 in 10.0 mi West 11.5 mph 17.3 mph N/A   Clear
1:45 PM 26.6 °F 16.2 °F 10.4 °F 51% 30.13 in 10.0 mi NW 11.5 mph 19.6 mph N/A   Clear
2:45 PM 24.8 °F 14.6 °F 8.6 °F 50% 30.13 in 10.0 mi WNW 10.4 mph 17.3 mph N/A   Clear
3:45 PM 24.8 °F 15.3 °F 8.6 °F 50% 30.14 in 10.0 mi West 9.2 mph - N/A   Clear
4:45 PM 24.8 °F 14.6 °F 8.6 °F 50% 30.15 in 10.0 mi West 10.4 mph - N/A   Clear
5:45 PM 23.0 °F 14.7 °F 8.6 °F 54% 30.15 in 10.0 mi West 6.9 mph - N/A   Clear
6:45 PM 21.2 °F 13.6 °F 8.6 °F 58% 30.16 in 10.0 mi WNW 5.8 mph - N/A   Clear
7:50 PM 19.4 °F 8.6 °F 6.8 °F 58% 30.16 in 10.0 mi WNW 9.2 mph - N/A   Clear
8:15 PM 19.4 °F 10.4 °F 8.6 °F 63% 30.16 in 10.0 mi WNW 6.9 mph - N/A   Scattered Clouds
8:35 PM 19.4 °F 9.5 °F 6.8 °F 58% 30.16 in 10.0 mi NW 8.1 mph - N/A   Scattered Clouds
8:50 PM 17.6 °F 5.7 °F 6.8 °F 63% 30.17 in 10.0 mi NW 10.4 mph - N/A   Scattered Clouds
8:55 PM 19.4 °F 7.9 °F 6.8 °F 58% 30.17 in 10.0 mi NW 10.4 mph - N/A   Clear
9:15 PM 19.4 °F 7.9 °F 6.8 °F 58% 30.17 in 10.0 mi NW 10.4 mph - N/A   Clear
9:35 PM 17.6 °F 5.0 °F 6.8 °F 63% 30.17 in 10.0 mi NW 11.5 mph - N/A   Clear
9:55 PM 17.6 °F 4.3 °F 5.0 °F 58% 30.17 in 10.0 mi NW 12.7 mph 18.4 mph N/A   Clear
10:15 PM 17.6 °F 5.7 °F 5.0 °F 58% 30.17 in 10.0 mi NW 10.4 mph - N/A   Clear
10:35 PM 15.8 °F 3.4 °F 5.0 °F 62% 30.17 in 10.0 mi NW 10.4 mph - N/A   Clear
10:55 PM 15.8 °F 3.4 °F 5.0 °F 62% 30.16 in 10.0 mi NW 10.4 mph - N/A   Clear
11:15 PM 14.0 °F 3.9 °F 5.0 °F 67% 30.16 in 10.0 mi WNW 6.9 mph - N/A   Clear
11:35 PM 14.0 °F 2.0 °F 5.0 °F 67% 30.16 in 10.0 mi WNW 9.2 mph - N/A   Clear
11:55 PM 14.0 °F 2.0 °F 5.0 °F 67% 30.16 in 10.0 mi WNW 9.2 mph - N/A   Clear